Weather in Ivanivka

Ukraine / Kirovohrad Region     48°52′12″N   32°53′41″E
temp.,
°C
wind,
m/s
gust,
m/s
humid.,
%
clouds,
%
prec.,
mm/h
press.,
hPa
HPBL,
m
15 may, sat
sat1500:00+12s4118799 0.0 1009233
03:00+11s498952 0.0 1010199
06:00+11ssw49915 0.0 1011212
09:00+18ssw57681 0.0 1012620
12:00+21sw565250 0.0 10121865
15:00+22sw5644100 0.0 10112532
18:00+19wsw2261100 0.0 101223
21:00+17nnw2368100 0.0 101354
16 may, sun
sun1600:00+15ene12755 0.0 101315
03:00+13s22821 0.0 101318
06:00+13wsw11840 0.0 101311
09:00+19ene1162100 0.0 1013376
12:00+22e3344100 0.0 10121549
15:00+24e444284 0.0 10112149
18:00+23ene455125 0.0 1010952
21:00+18nne466884 0.0 100987
17 may, mon
mon1700:00+17nne4868100 0.0 1008118
03:00+16ese2288100 1.8 100634
06:00+15w2396100 3.7 100672
09:00+18nnw5784100 3.8 1005457
12:00+20n4474100 0.1 1005964
15:00+22nw3266100 0.2 10051074
18:00+20nw557983 2.1 1005639
21:00+16nw3791100 3.4 1006294
18 may, tue
tue1800:00+15w2492100 0.1 1007147
03:00+14wsw3495100 0.2 100778
06:00+14ssw359560 0.1 1007133
09:00+18sw45765 0.9 1008592
12:00+22sw5756100 0.0 10081359
15:00+17s2685100 4.1 1008291
18:00+19ssw587749 2.9 1006802
21:00+15sw410900 5.6 1007266
19 may, wed
wed1900:00+13sw5109386 0.0 1009245
03:00+11wsw359631 0.0 101096
06:00+12sw2392100 0.0 101090
09:00+13s2491100 0.3 1011186
12:00+14sse2289100 2.3 1011276
15:00+15se2496100 8.5 1010246
18:00+14e4697100 4.4 1008342
21:00+14ene5997100 11.8 1007319